Watford City, ND

6:05 PM CDT on August 31, 2016 (GMT -0500)
Watford City

Weather History for KS25 - October, 2012

Change the Weather History Date:

Wednesday, October 3, 2012

  Actual Average (KISN) Record (KISN)
Temperature  
Mean Temperature 42 °F 49 °F  
Max Temperature 48 °F 63 °F 89 °F (1963)
Min Temperature 35 °F 35 °F 13 °F (1999)
Degree Days  
Heating Degree Days 24 16  
Month to date heating degree days 47  
Since 1 July heating degree days 393  
Cooling Degree Days 0 0  
Month to date cooling degree days 0  
Year to date cooling degree days 455  
Moisture  
Dew Point 37 °F    
Average Humidity 92    
Maximum Humidity 100    
Minimum Humidity 66    
Precipitation  
Precipitation 1.28 in 0.04 in 0.91 in (1915)
Month to date precipitation 0.11  
Year to date precipitation 12.29  
Sea Level Pressure  
Sea Level Pressure 30.08 in    
Wind  
Wind Speed 12 mph (North)    
Max Wind Speed 21 mph    
Max Gust Speed 29 mph    
Visibility 7 miles    
Events Rain , Snow    
T = Trace of Precipitation, MM = Missing Value Source: NWS Daily Summary

Daily Weather History Graph

Daily Weather History Graph

Search for Another Location

Airport or City:

Trip Planner

Search our weather history database for the weather conditions in past years. The results will help you decide how hot, cold, wet, or windy it might be!

Date:

Astronomy

Oct. 03, 2012 Rise Set
Actual Time 7:55 AM CDT 7:27 PM CDT
Civil Twilight 7:24 AM CDT 7:57 PM CDT
Nautical Twilight 6:49 AM CDT 8:33 PM CDT
Astronomical Twilight 6:12 AM CDT 9:09 PM CDT
Moon 9:02 PM CDT (10/3) 11:38 AM CDT (10/3)
Length of Visible Light 12h 33m
Length of Day
11h 31m
Waning Gibbous, 88% of the Moon is Illuminated
Oct 3
Waning Gibbous
Oct 8
Last Quarter
Oct 15
New
Oct 21
First Quarter
Oct 29
Full

Hourly Weather History & Observations

Time (CDT) Temp. Windchill Dew Point Humidity Pressure Visibility Wind Dir Wind Speed Gust Speed Precip Events Conditions
12:15 AM 48.2 °F - 37.4 °F 66% 29.89 in 10.0 mi North 9.2 mph - N/A   Clear
12:35 AM 48.2 °F - 37.4 °F 66% 29.90 in 10.0 mi North 13.8 mph 19.6 mph N/A   Clear
12:55 AM 46.4 °F 41.5 °F 37.4 °F 71% 29.92 in 10.0 mi North 10.4 mph - N/A Rain Light Rain
1:15 AM 46.4 °F 40.7 °F 37.4 °F 71% 29.94 in 10.0 mi North 12.7 mph - N/A   Partly Cloudy
1:35 AM 46.4 °F 41.9 °F 35.6 °F 66% 29.90 in 10.0 mi NNE 9.2 mph - N/A   Clear
1:55 AM 44.6 °F 42.2 °F 35.6 °F 71% 29.92 in 10.0 mi NNE 4.6 mph - N/A   Partly Cloudy
2:15 AM 44.6 °F 39.2 °F 33.8 °F 66% 29.90 in 10.0 mi NNE 10.4 mph - N/A   Partly Cloudy
2:35 AM 42.8 °F 36.6 °F 35.6 °F 76% 29.91 in 10.0 mi North 11.5 mph - N/A   Clear
2:55 AM 44.6 °F 40.2 °F 35.6 °F 71% 29.93 in 10.0 mi NNE 8.1 mph - N/A   Scattered Clouds
3:15 AM 41.0 °F 37.1 °F 37.4 °F 87% 29.92 in 9.0 mi NNE 5.8 mph - 0.04 in Rain Light Rain
3:35 AM 41.0 °F 34.3 °F 39.2 °F 93% 29.92 in 10.0 mi NNE 11.5 mph - 0.04 in Rain Light Rain
3:55 AM 41.0 °F 34.7 °F 39.2 °F 93% 29.92 in 10.0 mi NNE 10.4 mph - 0.06 in Rain Light Rain
4:15 AM 41.0 °F 33.1 °F 37.4 °F 87% 29.89 in 9.0 mi NNE 15.0 mph 18.4 mph N/A   Overcast
4:35 AM 41.0 °F 32.5 °F 37.4 °F 87% 29.89 in 10.0 mi NNE 17.3 mph - N/A   Overcast
4:55 AM 41.0 °F 31.6 °F 37.4 °F 87% 29.90 in 10.0 mi North 20.7 mph 27.6 mph N/A Rain Light Rain
5:15 AM 41.0 °F 31.9 °F 37.4 °F 87% 29.90 in 8.0 mi North 19.6 mph 28.8 mph 0.02 in   Overcast
5:35 AM 41.0 °F 32.5 °F 37.4 °F 87% 29.92 in 7.0 mi North 17.3 mph 21.9 mph 0.04 in   Overcast
5:55 AM 39.2 °F 30.8 °F 39.2 °F 100% 29.93 in 5.0 mi North 15.0 mph 25.3 mph 0.08 in   Overcast
6:15 AM 39.2 °F 30.2 °F 37.4 °F 93% 29.94 in 6.0 mi North 17.3 mph 27.6 mph 0.05 in   Overcast
6:35 AM 39.2 °F 30.2 °F 37.4 °F 93% 29.93 in 3.0 mi North 17.3 mph 28.8 mph 0.13 in Rain Heavy Rain
6:55 AM 39.2 °F 31.6 °F 37.4 °F 93% 29.95 in 7.0 mi North 12.7 mph 19.6 mph 0.21 in Rain Light Rain
7:15 AM 39.2 °F 32.5 °F 37.4 °F 93% 29.96 in 10.0 mi NNE 10.4 mph - N/A   Overcast
7:35 AM 39.2 °F 31.2 °F 37.4 °F 93% 29.97 in 4.0 mi North 13.8 mph 21.9 mph 0.06 in Rain Rain
7:55 AM 39.2 °F 30.8 °F 37.4 °F 93% 29.98 in 3.0 mi North 15.0 mph 18.4 mph 0.12 in Rain Rain
8:15 AM 39.2 °F 31.6 °F 37.4 °F 93% 29.97 in 4.0 mi North 12.7 mph 18.4 mph 0.02 in Rain Rain
8:35 AM 39.2 °F 32.5 °F 37.4 °F 93% 29.97 in 4.0 mi NNE 10.4 mph - 0.06 in Rain Rain
8:55 AM 39.2 °F 31.6 °F 37.4 °F 93% 30.00 in 10.0 mi North 12.7 mph - 0.07 in Rain Light Rain
9:15 AM 37.4 °F 29.8 °F 37.4 °F 100% 30.02 in 4.0 mi North 11.5 mph 17.3 mph 0.02 in Rain Light Rain
9:35 AM 37.4 °F 29.3 °F 35.6 °F 93% 30.00 in 1.8 mi NE 12.7 mph - 0.09 in Rain Rain
9:55 AM 37.4 °F 31.4 °F 35.6 °F 93% 30.01 in 2.5 mi NNE 8.1 mph - 0.16 in Rain Rain
10:15 AM 37.4 °F 33.8 °F 37.4 °F 100% 30.03 in 3.0 mi NE 4.6 mph - 0.02 in Rain Rain
10:35 AM 37.4 °F 33.8 °F 37.4 °F 100% 30.03 in 3.0 mi North 4.6 mph - 0.05 in Rain Rain
10:55 AM 37.4 °F 30.8 °F 37.4 °F 100% 30.04 in 4.0 mi NNE 9.2 mph - 0.09 in Rain Rain
11:15 AM 37.4 °F 30.3 °F 35.6 °F 93% 30.06 in 3.0 mi North 10.4 mph - 0.03 in Rain Rain
11:35 AM 37.4 °F 30.3 °F 35.6 °F 93% 30.06 in 3.0 mi NNE 10.4 mph - 0.09 in Rain Rain
11:55 AM 37.4 °F 30.3 °F 35.6 °F 93% 30.06 in 5.0 mi NNE 10.4 mph - 0.14 in Rain Light Rain
12:15 PM 39.2 °F 34.2 °F 37.4 °F 93% 30.08 in 5.0 mi North 6.9 mph - 0.01 in Rain Light Rain
12:55 PM 39.2 °F 33.0 °F 37.4 °F 93% 30.09 in 6.0 mi North 9.2 mph - 0.04 in Rain Light Rain
1:15 PM 39.2 °F 31.6 °F 39.2 °F 100% 30.09 in 7.0 mi North 12.7 mph - N/A Rain Light Rain
1:35 PM 39.2 °F 33.6 °F 39.2 °F 100% 30.10 in 5.0 mi North 8.1 mph - 0.02 in Rain Light Rain
1:55 PM 39.2 °F 33.0 °F 39.2 °F 100% 30.11 in 3.0 mi North 9.2 mph - 0.05 in Rain Light Rain
2:15 PM 39.2 °F 31.6 °F 37.4 °F 93% 30.11 in 5.0 mi North 12.7 mph - 0.01 in   Mostly Cloudy
2:35 PM 39.2 °F 31.6 °F 37.4 °F 93% 30.12 in 4.0 mi North 12.7 mph - 0.03 in   Overcast
2:55 PM 39.2 °F 30.2 °F 37.4 °F 93% 30.12 in 5.0 mi North 17.3 mph 20.7 mph 0.04 in   Overcast
3:35 PM 39.2 °F 30.8 °F 37.4 °F 93% 30.15 in 5.0 mi North 15.0 mph 20.7 mph 0.03 in   Overcast
3:55 PM 39.2 °F 30.5 °F 37.4 °F 93% 30.16 in 5.0 mi North 16.1 mph 23.0 mph 0.04 in   Overcast
4:15 PM 37.4 °F 27.8 °F 37.4 °F 100% 30.16 in 4.0 mi North 17.3 mph 23.0 mph 0.01 in Snow Light Snow
4:35 PM 37.4 °F 27.8 °F 37.4 °F 100% 30.17 in 4.0 mi North 17.3 mph 20.7 mph 0.04 in   Overcast
4:55 PM 37.4 °F 29.8 °F 37.4 °F 100% 30.18 in 4.0 mi North 11.5 mph 19.6 mph 0.05 in Snow Light Snow
5:15 PM 37.4 °F 29.3 °F 37.4 °F 100% 30.19 in 5.0 mi NNE 12.7 mph 18.4 mph 0.01 in   Overcast
5:35 PM 37.4 °F 28.5 °F 37.4 °F 100% 30.20 in 5.0 mi NNE 15.0 mph - 0.02 in Snow Light Snow
5:55 PM 37.4 °F 28.2 °F 37.4 °F 100% 30.21 in 7.0 mi North 16.1 mph - 0.03 in Rain Light Rain
6:15 PM 37.4 °F 29.3 °F 35.6 °F 93% 30.22 in 9.0 mi North 12.7 mph - N/A Rain Light Rain
6:35 PM 37.4 °F 29.3 °F 37.4 °F 100% 30.24 in 10.0 mi North 12.7 mph - 0.01 in Rain Light Rain
6:55 PM 37.4 °F 30.3 °F 35.6 °F 93% 30.25 in 9.0 mi North 10.4 mph - 0.01 in Rain Light Rain
7:15 PM 37.4 °F 29.3 °F 35.6 °F 93% 30.26 in 9.0 mi North 12.7 mph - N/A Rain Light Rain
7:35 PM 37.4 °F 29.8 °F 35.6 °F 93% 30.26 in 9.0 mi North 11.5 mph 17.3 mph 0.01 in Rain Light Rain
8:15 PM 37.4 °F 28.9 °F 35.6 °F 93% 30.28 in 6.0 mi North 13.8 mph - N/A Rain Light Rain
8:35 PM 37.4 °F 30.3 °F 35.6 °F 93% 30.29 in 8.0 mi North 10.4 mph 19.6 mph 0.01 in Rain Light Rain
8:55 PM 37.4 °F 29.8 °F 35.6 °F 93% 30.30 in 8.0 mi North 11.5 mph - 0.02 in Rain Light Rain
9:15 PM 35.6 °F 27.5 °F 35.6 °F 100% 30.31 in 7.0 mi North 11.5 mph - N/A Rain Light Rain
9:35 PM 35.6 °F 27.5 °F 35.6 °F 100% 30.31 in 5.0 mi North 11.5 mph - 0.02 in Rain Light Rain
9:55 PM 35.6 °F 27.1 °F 35.6 °F 100% 30.31 in 5.0 mi North 12.7 mph - 0.03 in Rain Light Rain
10:15 PM 35.6 °F 26.2 °F 35.6 °F 100% 30.32 in 8.0 mi North 15.0 mph 18.4 mph N/A Rain Light Rain
10:35 PM 35.6 °F 26.6 °F 35.6 °F 100% 30.32 in 7.0 mi North 13.8 mph - 0.01 in Rain Light Rain
10:55 PM 35.6 °F 26.6 °F 35.6 °F 100% 30.33 in 8.0 mi North 13.8 mph - 0.02 in Rain Light Rain
11:15 PM 35.6 °F 26.6 °F 35.6 °F 100% 30.33 in 7.0 mi North 13.8 mph - N/A Rain Light Rain
11:35 PM 35.6 °F 27.5 °F 35.6 °F 100% 30.33 in 9.0 mi North 11.5 mph 18.4 mph N/A Rain Light Rain
11:55 PM 35.6 °F 25.9 °F 33.8 °F 93% 30.34 in 10.0 mi North 16.1 mph - 0.01 in Rain Light Rain